Current weather by "City, St" or "zip code"  
 

Current Conditions: Greenville-Donaldson Center Airport, SC

Partly Cloudy


81.0 F

Last Updated on Oct 24 2020, 12:47 pm EDT
Humidity: 62%
Wind Speed: SW 6.9 mph
Barometer 30.02 in
Dewpoint: 66.2 F
Visibility: 10.00 mi
Precip: --
Heat Index: 83 F
Wind Chill: NA
Current conditions at:

Greenville-Donaldson Center Airport, SC (KGYH)

Lat: 34.7583 Lon: 82.3764

Local Radar Image active severe weather and emergency alerts image image weather storm and storm spotter reports image weather observation monitoring service image
Local
Radar
Active
Alerts
Storm Reports Obs
Monitoring

Sign-up For Email & Text Message Weather Alert Notification Services



Advertise Here

Observation History for Greenville-Donaldson Center Airport, SC


Time Wind
(mph)
Vis
(mi)
Weather Precip (in) Temperature (F) Relative
Humidity
Wind
Chill
(F)
Heat
Index
(F)
Pressure
Air Dwpt altimeter
(in)
sea level
(mb)
Rmks
12:47 pm EDT SW 6.9 10.00 Partly Cloudy -- 81.0 66.2 62% NA 83 30.02 M
11:47 am EDT SW 6.9 10.00 Fair -- 77.0 66.2 69% NA NA 30.04 M
10:47 am EDT N 0.0 10.00 Fair -- 72.0 66.2 83% NA NA 30.05 M
9:47 am EDT N 0.0 10.00 Fair -- 68.0 64.4 88% NA NA 30.06 M
8:47 am EDT N 0.0 10.00 Fair -- 66.0 62.6 88% NA NA 30.06 M
7:47 am EDT N 0.0 10.00 Fair -- 61.0 59.0 94% NA NA 30.06 M
6:47 am EDT W 4.6 10.00 Fair -- 61.0 60.8 100% 61 NA 30.05 M
5:55 am EDT N 0.0 10.00 Mostly Cloudy -- 61.0 60.8 100% NA NA 30.05 M
4:55 am EDT W 3.5 10.00 Partly Cloudy -- 63.0 60.8 94% NA NA 30.05 M
3:55 am EDT N 0.0 10.00 Mostly Cloudy -- 63.0 60.8 94% NA NA 30.05 M
2:55 am EDT N 0.0 10.00 Partly Cloudy -- 59.0 59.0 100% NA NA 30.06 M
1:55 am EDT N 0.0 10.00 Partly Cloudy -- 63.0 60.8 94% NA NA 30.06 M
12:55 am EDT N 0.0 10.00 Fair -- 63.0 62.6 100% NA NA 30.08 M
11:55 pm EDT N 0.0 10.00 Fair -- 63.0 60.8 94% NA NA 30.08 M
10:55 pm EDT N 0.0 10.00 Fair -- 66.0 62.6 88% NA NA 30.08 M
9:55 pm EDT N 0.0 10.00 Fair -- 68.0 62.6 83% NA NA 30.08 M
8:47 pm EDT N 0.0 10.00 Fair -- 72.0 62.6 73% NA NA 30.08 M
7:47 pm EDT N 0.0 10.00 Fair -- 72.0 62.6 73% NA NA 30.07 M
6:47 pm EDT SE 3.5 10.00 Fair -- 72.0 62.6 73% NA NA 30.08 M
5:47 pm EDT SE 3.5 10.00 Partly Cloudy -- 79.0 60.8 54% NA NA 30.07 M
4:47 pm EDT S 4.6 10.00 Partly Cloudy -- 81.0 60.8 51% NA 82 30.08 M
3:47 pm EDT N 0.0 10.00 Mostly Cloudy -- 81.0 60.8 51% NA 82 30.09 M
2:47 pm EDT N 0.0 10.00 Mostly Cloudy -- 79.0 62.6 58% NA NA 30.10 M
1:47 pm EDT N 0.0 10.00 Mostly Cloudy -- 79.0 62.6 58% NA NA 30.14 M

Regional Weather Observation


Greenville Downtown Airport, SC (KGMU)

A Few Clouds
79.0 F

Greer, Greenville-Spartanburg Airport, SC (KGSP)

A Few Clouds
81.0 F

Greenville-Donaldson Center Airport, SC (KGYH)

Partly Cloudy
81.0 F

Clemson, Clemson-Oconee County Airport, SC (KCEU)

Mostly Cloudy
76.0 F

Anderson, Anderson County Airport, SC (KAND)

A Few Clouds
78.0 F

Asheville, Asheville Regional Airport, NC (KAVL)

Mostly Cloudy
74.0 F